[[{"header":{"parameterUnit":"m.s-1","parameterCategory":2,"la1":30.2991,"la2":30.254,"lo1":-89.0895,"lo2":-89.0444,"dy":0.0017,"dx":0.0017,"nx":28,"ny":28,"refTime":"2024-09-02T09:00:00:Z","depth":"0","parameterNumber":2,"parameterNumberName":"U-component_of_CURRENTS"},"data":[0,0,0,0,0,0,0,0,0,0,0,0,0,0,0,0,0,0,0,0,0,0,0,0,0,0,0,0,0,0,0,0,0,0,0,0,0,0,0,0,0,0,0,0,0,0,0,0,0,0,0,0,0,0,0,0,0,0,0.0589,0.059,0,0.0603,0.0604,0.0604,0.062,0.0621,0.0621,0.0621,0.0685,0.0686,0.0688,0,0,0,0,0,0,0,0,0,0,0,0,0,0.057,0.057,0.0589,0.059,0.059,0.0603,0.0604,0.0604,0.062,0.0621,0.0621,0.0621,0.0684,0.0686,0.0688,0,0,0,0,0,0,0,0,0,0,0,0,0,0.0581,0.057,0.0589,0.0599,0.06,0.0603,0.0604,0.0604,0.062,0.0621,0.0621,0.0621,0.0684,0.0686,0.0688,0.0698,0,0,0.0695,0.0696,0,0,0,0,0,0,0,0,0.0581,0.0582,0.0597,0.0598,0.0599,0.0609,0.062,0.0638,0.062,0.0614,0.0621,0.0621,0.0663,0.0667,0.067,0.0701,0.0704,0.0696,0.0697,0.0698,0.0699,0,0,0,0,0,0,0,0.058,0.0582,0.0596,0.0597,0.0598,0.0599,0.0602,0.0623,0.0639,0.0614,0.0615,0.0615,0.0664,0.0668,0.0672,0.0705,0.0696,0.0698,0.0699,0.07,0.0728,0.0728,0,0,0,0,0,0,0.0576,0.0581,0.0596,0.0596,0.0589,0.06,0.0602,0.0607,0.0638,0.0642,0.0615,0.0616,0.0664,0.0669,0.0674,0.0676,0.0698,0.07,0.0702,0.0729,0.0728,0.0728,0,0,0,0,0,0,0.0576,0.0578,0.0595,0.0588,0.059,0.06,0.0605,0.0607,0.0608,0.0637,0.0643,0.0614,0.0664,0.0671,0.0681,0.0679,0.0701,0.0703,0.073,0.0729,0.0728,0.0687,0,0,0,0,0,0,0.0575,0.0577,0.0578,0.0588,0.059,0.0591,0.0605,0.0607,0.0607,0.0609,0.0638,0.0644,0.0665,0.0677,0.0683,0.0683,0.0705,0.0731,0.0729,0.0728,0.0689,0.0685,0.0681,0,0,0,0,0,0.0575,0.0576,0.0579,0.058,0.0592,0.059,0.0591,0.06,0.0607,0.0603,0.0618,0.0643,0.0674,0.0678,0.0685,0.0686,0.0731,0.073,0.0728,0.0691,0.0686,0.0681,0,0,0,0,0,0,0.057,0.0578,0.0581,0.0586,0.0584,0.0592,0.0592,0.0596,0.0604,0.0608,0.0635,0.0642,0.0649,0.067,0.0674,0.0689,0.0707,0.0707,0.0676,0.0671,0.0667,0.0665,0.0707,0,0,0,0,0,0.0568,0.0571,0.0575,0.0577,0.0576,0.0582,0.0583,0.0587,0.0595,0.0599,0.0616,0.0635,0.0649,0.0661,0.0676,0.0687,0.0694,0.0691,0.0687,0.0683,0.0685,0.0684,0.068,0.0723,0.0723,0.0723,0,0,0.0566,0.0571,0.0572,0.0575,0.0577,0.0571,0.0584,0.0582,0.0578,0.0606,0.0607,0.0621,0.0647,0.0654,0.066,0.0672,0.0671,0.0681,0.0678,0.0682,0.0682,0.0678,0.0674,0.0722,0.0722,0.0722,0,0,0.0559,0.0567,0.0564,0.0561,0.056,0.0562,0.0559,0.0562,0.0566,0.0566,0.0583,0.0591,0.0615,0.0629,0.0641,0.0624,0.0646,0.0631,0.0615,0.0614,0.0611,0.0608,0.0597,0.0594,0.0633,0.0633,0.0633,0,0.0554,0.0553,0.0561,0.0554,0.055,0.0556,0.0546,0.0549,0.0553,0.0556,0.0561,0.0584,0.0604,0.0615,0.0606,0.0616,0.0615,0.0632,0.0609,0.0606,0.0604,0.0594,0.0591,0.0631,0.0631,0.0632,0.0632,0,0.0543,0.054,0.0536,0.053,0.0527,0.0519,0.0521,0.0519,0.0523,0.0528,0.0534,0.0551,0.0567,0.0572,0.0586,0.0582,0.0585,0.06,0.0621,0.0597,0.0588,0.0585,0.0628,0.0629,0.0629,0.063,0,0,0.0534,0.0529,0.0526,0.0518,0.0513,0.0507,0.0502,0.0499,0.0498,0.0503,0.0502,0.0518,0.0529,0.0542,0.0559,0.0559,0.0536,0.057,0.0571,0.056,0.0523,0.0523,0.052,0.0546,0.0545,0.0545,0.0518,0,0.0518,0.0501,0.0504,0.0483,0.0473,0.0478,0.0473,0.0473,0.0478,0.0479,0.0497,0.0503,0.0518,0.0525,0.0525,0.0539,0.0529,0.0541,0.0549,0.0549,0.0552,0.0517,0.0512,0.0488,0.0516,0.0515,0.0515,0,0.0503,0.0492,0.0472,0.046,0.0457,0.0446,0.044,0.0437,0.0446,0.0453,0.0463,0.0478,0.0485,0.0497,0.0501,0.0508,0.0508,0.0514,0.0513,0.0529,0.0544,0.052,0.0483,0.0458,0.0511,0.0511,0.0512,0,0.0486,0.0469,0.0452,0.0446,0.0435,0.0428,0.0423,0.0427,0.0425,0.0435,0.0436,0.0451,0.0457,0.0463,0.0477,0.0487,0.0475,0.0493,0.0489,0.0489,0.0495,0.0496,0.0437,0.0483,0.0483,0.0483,0.0483,0,0.0469,0.0453,0.0441,0.0428,0.0407,0.041,0.0393,0.0396,0.04,0.0392,0.042,0.0419,0.0447,0.045,0.0462,0.0465,0.0463,0.0477,0.0481,0.0479,0.0479,0.0468,0.0427,0.0482,0.0482,0.0482,0.0482,0,0.0456,0.0448,0.0421,0.0403,0.0397,0.038,0.0366,0.0355,0.0368,0.0359,0.0361,0.0386,0.0394,0.0416,0.0426,0.0442,0.0429,0.0447,0.0438,0.0441,0.0424,0.0381,0.0331,0.0339,0.0439,0.0439,0.0439,0,0.0451,0.0438,0.04,0.0377,0.0366,0.0345,0.0329,0.0335,0.0326,0.0337,0.0329,0.0342,0.0344,0.0364,0.0402,0.0418,0.0401,0.0419,0.044,0.0411,0.0365,0.0362,0.0372,0.0424,0.0423,0.0423,0.0423,0,0.0441,0.0424,0.0399,0.0348,0.0319,0.029,0.0271,0.0262,0.027,0.0265,0.026,0.0264,0.0305,0.0325,0.0361,0.0385,0.039,0.0415,0.0388,0.0343,0.0332,0.0346,0.0447,0.0421,0.0421,0.0421,0.0421,0.0422,0.043,0.0407,0.0366,0.0318,0.0276,0.0233,0.0208,0.0202,0.0182,0.0185,0.0194,0.0203,0.0237,0.0298,0.0338,0.0377,0.0368,0.0373,0.032,0.032,0.0329,0.042,0.0402,0.0402,0.0402,0.0402,0.0402,0,0.0417,0.0388,0.034,0.0268,0.0205,0.0197,0.0165,0.0155,0.0131,0.0144,0.0138,0.015,0.0166,0.0226,0.0261,0.027,0.0321,0.0263,0.0251,0.0268,0.0351,0.0355,0.0322,0.0322,0.0322,0.0322,0.0322,0.0322,0.0406,0.0365,0.0333,0.0219,0.0163,0.0096,0.0074,0.0084,0.0095,0.011,0.0123,0.0137,0.0129,0.008,0.0107,0.0139,0.0138,0.013,0.0134,0.0173,0.018,0.0187,0.0184,0.0115,0.0115,0.0104,0.0103,0.0103]},{"header":{"parameterUnit":"m.s-1","parameterCategory":2,"la1":30.2991,"la2":30.254,"lo1":-89.0895,"lo2":-89.0444,"dy":0.0017,"dx":0.0017,"nx":28,"ny":28,"refTime":"2024-09-02T09:00:00:Z","depth":"0","parameterNumber":3,"parameterNumberName":"V-component_of_CURRENTS"},"data":[0,0,0,0,0,0,0,0,0,0,0,0,0,0,0,0,0,0,0,0,0,0,0,0,0,0,0,0,0,0,0,0,0,0,0,0,0,0,0,0,0,0,0,0,0,0,0,0,0,0,0,0,0,0,0,0,0,0,-0.1847,-0.1849,0,-0.201,-0.2011,-0.2013,-0.208,-0.208,-0.208,-0.208,-0.2143,-0.2145,-0.2147,0,0,0,0,0,0,0,0,0,0,0,0,0,-0.1535,-0.1541,-0.1847,-0.185,-0.1852,-0.201,-0.2011,-0.2013,-0.208,-0.208,-0.208,-0.208,-0.2143,-0.2145,-0.2147,0,0,0,0,0,0,0,0,0,0,0,0,0,-0.1679,-0.1543,-0.1847,-0.1907,-0.1914,-0.2009,-0.2012,-0.2014,-0.208,-0.208,-0.208,-0.208,-0.2142,-0.2144,-0.2147,-0.2165,0,0,-0.2155,-0.2156,0,0,0,0,0,0,0,0,-0.1671,-0.169,-0.1895,-0.1903,-0.1911,-0.2027,-0.1925,-0.2061,-0.208,-0.2014,-0.208,-0.208,-0.2097,-0.2104,-0.2131,-0.2168,-0.217,-0.2155,-0.2157,-0.2158,-0.2159,0,0,0,0,0,0,0,-0.1661,-0.1683,-0.1909,-0.1898,-0.1908,-0.1905,-0.1925,-0.1951,-0.205,-0.202,-0.2026,-0.2049,-0.21,-0.2129,-0.2133,-0.2171,-0.2155,-0.2157,-0.2159,-0.216,-0.223,-0.223,0,0,0,0,0,0,-0.1651,-0.1675,-0.1903,-0.1914,-0.1792,-0.1911,-0.1934,-0.1988,-0.2052,-0.2064,-0.2049,-0.2051,-0.2124,-0.213,-0.2135,-0.2165,-0.2158,-0.216,-0.2162,-0.2229,-0.223,-0.223,0,0,0,0,0,0,-0.1645,-0.1671,-0.1897,-0.1797,-0.1826,-0.1917,-0.1977,-0.1991,-0.2017,-0.2076,-0.2084,-0.206,-0.2125,-0.2132,-0.2161,-0.2167,-0.2161,-0.2164,-0.2229,-0.223,-0.223,-0.2221,0,0,0,0,0,0,-0.1635,-0.1669,-0.1695,-0.1798,-0.1832,-0.1949,-0.1978,-0.1994,-0.2033,-0.2038,-0.2088,-0.2095,-0.2125,-0.2157,-0.2164,-0.2171,-0.2166,-0.2229,-0.2229,-0.223,-0.2221,-0.2221,-0.2221,0,0,0,0,0,-0.1624,-0.1668,-0.1696,-0.1723,-0.187,-0.195,-0.1966,-0.2027,-0.2034,-0.2048,-0.2082,-0.2093,-0.2165,-0.216,-0.2167,-0.2175,-0.2228,-0.2229,-0.223,-0.222,-0.2221,-0.2221,0,0,0,0,0,0,-0.154,-0.1683,-0.1715,-0.1799,-0.1864,-0.1962,-0.1988,-0.202,-0.2061,-0.206,-0.21,-0.211,-0.2136,-0.2155,-0.2148,-0.2196,-0.2197,-0.2199,-0.2187,-0.2187,-0.2188,-0.2173,-0.2168,0,0,0,0,0,-0.1536,-0.1612,-0.1721,-0.1782,-0.1816,-0.1894,-0.193,-0.1971,-0.2027,-0.2046,-0.2078,-0.2112,-0.2147,-0.2165,-0.2194,-0.2221,-0.222,-0.223,-0.223,-0.223,-0.2223,-0.2238,-0.2238,-0.2232,-0.2232,-0.2232,0,0,-0.1522,-0.1606,-0.165,-0.1768,-0.1825,-0.1879,-0.1915,-0.1973,-0.2005,-0.2044,-0.2079,-0.2109,-0.2152,-0.2188,-0.2201,-0.2205,-0.2228,-0.2231,-0.2231,-0.2224,-0.2238,-0.2239,-0.2239,-0.2233,-0.2233,-0.2233,0,0,-0.1527,-0.1603,-0.1665,-0.1721,-0.181,-0.1859,-0.1869,-0.1957,-0.1983,-0.2025,-0.2061,-0.2092,-0.2141,-0.2182,-0.2208,-0.2222,-0.2224,-0.2229,-0.2225,-0.224,-0.224,-0.224,-0.2222,-0.2221,-0.2234,-0.2234,-0.2234,0,-0.1489,-0.1603,-0.1684,-0.1744,-0.1787,-0.1845,-0.1891,-0.193,-0.2007,-0.2026,-0.2028,-0.2108,-0.2141,-0.2196,-0.2207,-0.2222,-0.2219,-0.2222,-0.2239,-0.2239,-0.224,-0.2222,-0.2221,-0.2234,-0.2234,-0.2234,-0.2234,0,-0.1554,-0.1624,-0.1656,-0.176,-0.1803,-0.1854,-0.1919,-0.1943,-0.1967,-0.2009,-0.2052,-0.2099,-0.2148,-0.2165,-0.2194,-0.2223,-0.2214,-0.2233,-0.2236,-0.224,-0.222,-0.2219,-0.2233,-0.2233,-0.2233,-0.2234,0,0,-0.1514,-0.1673,-0.1681,-0.1726,-0.1818,-0.1862,-0.1897,-0.196,-0.1979,-0.2025,-0.2054,-0.2117,-0.2135,-0.2164,-0.2201,-0.2218,-0.2217,-0.2226,-0.2227,-0.2203,-0.2223,-0.213,-0.2119,-0.2241,-0.2242,-0.2242,-0.2202,0,-0.153,-0.1646,-0.1716,-0.1785,-0.1843,-0.1891,-0.1919,-0.1968,-0.1999,-0.2031,-0.2075,-0.2112,-0.2138,-0.2158,-0.2182,-0.2214,-0.2217,-0.2225,-0.2228,-0.2227,-0.214,-0.2116,-0.2033,-0.1983,-0.2201,-0.2201,-0.2201,0,-0.1569,-0.1645,-0.1734,-0.1817,-0.1841,-0.1873,-0.1922,-0.1957,-0.2005,-0.2026,-0.2065,-0.2095,-0.2137,-0.2149,-0.2188,-0.2191,-0.2201,-0.2214,-0.2214,-0.2128,-0.2132,-0.2019,-0.1973,-0.1946,-0.2199,-0.2199,-0.2199,0,-0.1529,-0.1645,-0.1716,-0.1752,-0.1853,-0.1873,-0.1905,-0.1954,-0.1973,-0.2019,-0.2026,-0.2082,-0.2098,-0.213,-0.2153,-0.2175,-0.217,-0.2208,-0.2126,-0.2119,-0.2047,-0.2033,-0.1969,-0.2217,-0.2217,-0.2217,-0.2217,0,-0.1537,-0.1586,-0.1703,-0.1743,-0.1788,-0.1852,-0.188,-0.1916,-0.195,-0.1964,-0.2018,-0.2025,-0.2093,-0.2102,-0.2133,-0.2105,-0.2153,-0.2104,-0.21,-0.2038,-0.2024,-0.1997,-0.1973,-0.2216,-0.2216,-0.2216,-0.2217,0,-0.1502,-0.1586,-0.1659,-0.1757,-0.1782,-0.1808,-0.1861,-0.1875,-0.1908,-0.1921,-0.1929,-0.1976,-0.1981,-0.202,-0.2057,-0.2055,-0.1971,-0.2034,-0.1933,-0.1917,-0.1807,-0.1785,-0.1578,-0.1509,-0.1936,-0.1933,-0.1931,0,-0.1508,-0.1551,-0.1654,-0.1685,-0.1732,-0.1778,-0.1803,-0.1849,-0.186,-0.1885,-0.1884,-0.1889,-0.1877,-0.1871,-0.1878,-0.1873,-0.185,-0.1786,-0.1813,-0.1761,-0.1736,-0.1649,-0.1602,-0.1716,-0.1712,-0.1709,-0.1706,0,-0.1498,-0.1532,-0.1594,-0.1657,-0.1694,-0.1733,-0.1769,-0.177,-0.1808,-0.1805,-0.1793,-0.1776,-0.175,-0.1693,-0.1666,-0.1675,-0.1656,-0.1719,-0.171,-0.1573,-0.143,-0.1376,-0.1768,-0.1679,-0.1682,-0.1684,-0.1685,-0.1686,-0.1472,-0.1504,-0.1575,-0.1629,-0.1667,-0.1687,-0.1693,-0.1715,-0.1711,-0.1686,-0.1698,-0.166,-0.1555,-0.1502,-0.1486,-0.1418,-0.1433,-0.1424,-0.1405,-0.1325,-0.1229,-0.1527,-0.1408,-0.1409,-0.141,-0.1411,-0.1412,0,-0.1451,-0.1495,-0.1542,-0.1603,-0.1622,-0.1651,-0.1672,-0.1664,-0.1645,-0.1606,-0.1572,-0.1498,-0.1354,-0.1299,-0.119,-0.1134,-0.1083,-0.1129,-0.1036,-0.1012,-0.1332,-0.1299,-0.1096,-0.1096,-0.1096,-0.1096,-0.1096,-0.1096,-0.1444,-0.1485,-0.152,-0.1551,-0.1581,-0.1587,-0.1589,-0.1577,-0.1564,-0.1495,-0.1476,-0.1445,-0.1352,-0.1098,-0.0951,-0.0927,-0.0839,-0.077,-0.0778,-0.1082,-0.111,-0.1138,-0.1105,-0.0864,-0.0863,-0.0421,-0.0418,-0.0415]}],[{"header":{"parameterUnit":"m.s-1","parameterCategory":2,"la1":30.2991,"la2":30.254,"lo1":-89.0895,"lo2":-89.0444,"dy":0.0017,"dx":0.0017,"nx":28,"ny":28,"refTime":"2024-09-02T09:00:00:Z","depth":"2","parameterNumber":2,"parameterNumberName":"U-component_of_CURRENTS"},"data":[0,0,0,0,0,0,0,0,0,0,0,0,0,0,0,0,0,0,0,0,0,0,0,0,0,0,0,0,0,0,0,0,0,0,0,0,0,0,0,0,0,0,0,0,0,0,0,0,0,0,0,0,0,0,0,0,0,0,0.0132,0.0132,0,0.0084,0.0083,0.0083,0.004,0.004,0.004,0.004,0.0008,0.0008,0.0007,0,0,0,0,0,0,0,0,0,0,0,0,0,0.0158,0.0157,0.0132,0.0132,0.0131,0.0084,0.0083,0.0082,0.004,0.004,0.004,0.0039,0.0008,0.0008,0.0007,0,0,0,0,0,0,0,0,0,0,0,0,0,0.013,0.0157,0.0132,0.0106,0.0103,0.0084,0.0083,0.0082,0.0041,0.004,0.004,0.0039,0.0009,0.0008,0.0007,0.0011,0,0,0.0004,0.0004,0,0,0,0,0,0,0,0,0.0132,0.0129,0.011,0.0108,0.0105,0.0069,0.0081,0.006,0.0041,0.0062,0.004,0.0039,0.0032,0.0029,0.0018,0.001,0.0008,0.0004,0.0004,0.0003,0.0003,0,0,0,0,0,0,0,0.0134,0.0131,0.0111,0.011,0.0107,0.0087,0.0082,0.0076,0.0049,0.006,0.0058,0.0056,0.003,0.0019,0.0017,0.0008,0.0004,0.0004,0.0003,0.0003,0.0063,0.0065,0,0,0,0,0,0,0.0146,0.0133,0.0113,0.011,0.012,0.0087,0.0082,0.008,0.0049,0.0044,0.0056,0.0054,0.002,0.0018,0.0016,0.0048,0.0003,0.0003,0.0002,0.0061,0.0063,0.0065,0,0,0,0,0,0,0.0146,0.0144,0.0115,0.0122,0.0117,0.0087,0.0085,0.0079,0.0076,0.0046,0.0041,0.0061,0.002,0.0017,0.0025,0.0045,0.0002,0.0002,0.0058,0.0061,0.0064,0.0093,0,0,0,0,0,0,0.0147,0.0145,0.0152,0.0123,0.0117,0.0112,0.0085,0.0079,0.0076,0.0073,0.0048,0.0044,0.0019,0.0027,0.0024,0.0043,0.0001,0.0056,0.006,0.0063,0.009,0.0097,0.0103,0,0,0,0,0,0.0148,0.0156,0.0153,0.0151,0.0126,0.0113,0.0108,0.0084,0.0077,0.0079,0.0068,0.0045,0.005,0.0027,0.0024,0.0043,0.0054,0.0059,0.0063,0.0087,0.0096,0.0103,0,0,0,0,0,0,0.0165,0.0152,0.0147,0.015,0.0139,0.0107,0.0108,0.0096,0.0087,0.0088,0.006,0.0056,0.0076,0.0064,0.004,0.0078,0.0053,0.0058,0.0072,0.0081,0.0087,0.0097,0.0,0,0,0,0,0,0.0176,0.0181,0.0163,0.0167,0.0165,0.0142,0.0136,0.0122,0.0109,0.0104,0.0089,0.0087,0.0092,0.0089,0.0091,0.0103,0.0098,0.0121,0.0128,0.0134,0.0144,0.0161,0.0169,0.0081,0.0081,0.0081,0,0,0.0182,0.0178,0.0179,0.0172,0.0161,0.0163,0.0137,0.0134,0.0138,0.0104,0.0113,0.011,0.0105,0.012,0.0128,0.0109,0.0156,0.014,0.0144,0.0151,0.0166,0.0174,0.0182,0.0084,0.0083,0.0083,0,0,0.0198,0.0197,0.0208,0.0203,0.0198,0.0185,0.0191,0.0172,0.0169,0.0176,0.0163,0.0178,0.0172,0.0175,0.0176,0.0228,0.0197,0.0231,0.026,0.0276,0.0283,0.0288,0.0284,0.0289,0.0227,0.0227,0.0227,0,0.0206,0.0217,0.0208,0.0217,0.0217,0.0202,0.0211,0.0207,0.0195,0.0202,0.0188,0.0207,0.0203,0.0228,0.0245,0.0242,0.0235,0.022,0.0282,0.0288,0.0293,0.0287,0.0292,0.0229,0.0229,0.0228,0.0228,0,0.0231,0.0239,0.0245,0.0254,0.0254,0.026,0.0254,0.0263,0.0261,0.0255,0.0282,0.0276,0.0285,0.0293,0.028,0.0322,0.0299,0.029,0.0252,0.0303,0.0294,0.0299,0.0232,0.0231,0.023,0.023,0,0,0.0247,0.026,0.0263,0.0271,0.0274,0.0275,0.0296,0.0307,0.0322,0.0323,0.0341,0.0364,0.0357,0.0361,0.0352,0.0367,0.0397,0.0343,0.0343,0.0323,0.0414,0.0377,0.0378,0.0388,0.0389,0.039,0.0387,0,0.0268,0.0292,0.0293,0.0315,0.0325,0.0322,0.0339,0.035,0.0355,0.037,0.0379,0.039,0.0383,0.0381,0.0402,0.0397,0.0413,0.0398,0.0382,0.0382,0.033,0.0385,0.0313,0.0303,0.0392,0.0392,0.0393,0,0.0296,0.0306,0.0332,0.0344,0.0349,0.0358,0.0383,0.0393,0.0414,0.0417,0.0433,0.0429,0.0453,0.0438,0.0461,0.0446,0.0443,0.0438,0.0438,0.0399,0.0355,0.0271,0.0308,0.0401,0.04,0.04,0.0399,0,0.0319,0.0335,0.0358,0.0362,0.0374,0.0386,0.039,0.041,0.0416,0.044,0.0439,0.0469,0.0464,0.0483,0.0474,0.0466,0.049,0.0475,0.0442,0.0438,0.0374,0.0363,0.0509,0.0509,0.0509,0.0509,0.0509,0,0.0345,0.036,0.0368,0.0379,0.0396,0.0399,0.0416,0.0428,0.0437,0.0442,0.0457,0.0453,0.0475,0.0481,0.0486,0.0475,0.05,0.0462,0.0445,0.0382,0.0372,0.0456,0.045,0.0509,0.0509,0.0509,0.0509,0,0.0365,0.0376,0.0397,0.0409,0.0408,0.0418,0.041,0.0416,0.0427,0.0432,0.0434,0.0439,0.0438,0.0456,0.0474,0.0472,0.0477,0.0469,0.0383,0.0358,0.041,0.0406,0.0436,0.0434,0.0434,0.0433,0.0432,0,0.0368,0.0387,0.0412,0.0412,0.0413,0.0415,0.0409,0.0413,0.0412,0.0413,0.0412,0.0409,0.0386,0.0393,0.0413,0.0421,0.0442,0.0351,0.034,0.0427,0.0408,0.0405,0.0402,0.026,0.0258,0.0257,0.0255,0,0.0364,0.0387,0.0405,0.0415,0.041,0.0399,0.0389,0.0382,0.0384,0.0354,0.0313,0.0289,0.0314,0.0266,0.0297,0.0309,0.0347,0.0317,0.044,0.0291,0.0262,0.0243,0.0246,0.0241,0.0242,0.0243,0.0244,0.0245,0.0348,0.0366,0.0394,0.0402,0.0394,0.0366,0.0336,0.0311,0.0263,0.0191,0.0218,0.0086,0.0146,0.0082,0.0171,0.0237,0.0266,0.0231,0.0236,0.0243,0.0224,0.0196,0.0157,0.0158,0.0159,0.0159,0.016,0,0.0298,0.0342,0.0361,0.0357,0.0331,0.0342,0.0305,0.0251,0.0156,0.007,0.0001,-0.0131,-0.0137,-0.0084,-0.0008,0.0098,0.0134,0.0101,0.0099,0.0111,0.0123,0.01,-0.0001,-0.0001,-0.0001,-0.0001,0,0,0.0274,0.0287,0.0314,0.0281,0.0278,0.0214,0.0181,0.0089,0.0011,-0.0173,-0.034,-0.034,-0.0272,-0.0272,-0.0109,-0.0073,0.0017,-0.0048,0.0065,0.0061,0.0072,0.0172,0.0147,0,0,0,0,0]},{"header":{"parameterUnit":"m.s-1","parameterCategory":2,"la1":30.2991,"la2":30.254,"lo1":-89.0895,"lo2":-89.0444,"dy":0.0017,"dx":0.0017,"nx":28,"ny":28,"refTime":"2024-09-02T09:00:00:Z","depth":"2","parameterNumber":3,"parameterNumberName":"V-component_of_CURRENTS"},"data":[0,0,0,0,0,0,0,0,0,0,0,0,0,0,0,0,0,0,0,0,0,0,0,0,0,0,0,0,0,0,0,0,0,0,0,0,0,0,0,0,0,0,0,0,0,0,0,0,0,0,0,0,0,0,0,0,0,0,0.029,0.029,0,0.0337,0.0338,0.0339,0.0332,0.0331,0.0329,0.0328,0.0353,0.0354,0.0356,0,0,0,0,0,0,0,0,0,0,0,0,0,0.0232,0.0233,0.029,0.029,0.0291,0.0337,0.0338,0.0339,0.0332,0.0331,0.0329,0.0328,0.0352,0.0354,0.0356,0,0,0,0,0,0,0,0,0,0,0,0,0,0.027,0.0234,0.029,0.029,0.029,0.0337,0.0338,0.034,0.0332,0.0331,0.0329,0.0327,0.0351,0.0354,0.0357,0.0407,0,0,0.0364,0.0366,0,0,0,0,0,0,0,0,0.0268,0.0272,0.029,0.029,0.029,0.0324,0.0327,0.036,0.0333,0.032,0.0328,0.0326,0.034,0.0343,0.0362,0.0408,0.0409,0.0365,0.0366,0.0367,0.0368,0,0,0,0,0,0,0,0.0265,0.0271,0.0313,0.029,0.029,0.03,0.0304,0.0333,0.0342,0.0321,0.032,0.032,0.034,0.0359,0.0362,0.041,0.0365,0.0367,0.0369,0.037,0.0412,0.0411,0,0,0,0,0,0,0.0252,0.0268,0.0311,0.0314,0.027,0.0302,0.0306,0.0318,0.0342,0.0343,0.0321,0.0319,0.0356,0.0359,0.0363,0.0341,0.0367,0.037,0.0371,0.0412,0.0412,0.0411,0,0,0,0,0,0,0.0251,0.0256,0.0309,0.0288,0.0295,0.0304,0.0318,0.0319,0.0304,0.0341,0.0342,0.0298,0.0354,0.0359,0.0366,0.0345,0.0371,0.0373,0.0413,0.0412,0.0411,0.035,0,0,0,0,0,0,0.0249,0.0256,0.0249,0.0288,0.0295,0.0321,0.0319,0.0322,0.0307,0.0304,0.0323,0.0326,0.0353,0.0362,0.0369,0.0349,0.0375,0.0413,0.0412,0.0411,0.0353,0.0348,0.0343,0,0,0,0,0,0.0247,0.0251,0.0249,0.0253,0.029,0.032,0.0326,0.0329,0.0306,0.0307,0.0314,0.0323,0.0361,0.0365,0.0372,0.0352,0.0413,0.0412,0.0412,0.0355,0.0349,0.0343,0,0,0,0,0,0,0.0228,0.0252,0.0249,0.0261,0.0277,0.0317,0.0312,0.031,0.0318,0.03,0.0328,0.0332,0.0329,0.0353,0.0355,0.0362,0.0385,0.0386,0.034,0.0334,0.0329,0.0321,0.0377,0,0,0,0,0,0.022,0.0222,0.0251,0.0256,0.026,0.0277,0.0282,0.0283,0.0298,0.0298,0.0308,0.032,0.0341,0.0343,0.0368,0.0377,0.0386,0.0366,0.0361,0.0357,0.0355,0.0359,0.0354,0.0408,0.0408,0.0408,0,0,0.0214,0.0224,0.0226,0.025,0.026,0.0274,0.0276,0.0274,0.0276,0.0301,0.0292,0.0304,0.034,0.0348,0.0348,0.0358,0.0342,0.0355,0.0351,0.0352,0.0357,0.0352,0.0347,0.0407,0.0407,0.0407,0,0,0.0212,0.0211,0.0214,0.0225,0.0229,0.0247,0.0236,0.0253,0.0245,0.0249,0.0262,0.0256,0.0288,0.0307,0.0323,0.0307,0.0318,0.0306,0.0273,0.0276,0.0272,0.0268,0.0253,0.0248,0.0301,0.0301,0.0301,0,0.02,0.0214,0.022,0.0226,0.0231,0.0228,0.0237,0.0241,0.0252,0.0249,0.0232,0.0258,0.0271,0.0293,0.0278,0.0295,0.0293,0.0291,0.0269,0.0265,0.0262,0.0248,0.0244,0.0298,0.0298,0.0299,0.0299,0,0.0213,0.0212,0.0213,0.0221,0.0229,0.0232,0.024,0.0229,0.0208,0.0213,0.0204,0.022,0.0231,0.023,0.0247,0.0234,0.0237,0.0262,0.028,0.0253,0.024,0.0237,0.0294,0.0295,0.0296,0.0296,0,0,0.0231,0.0223,0.0221,0.0221,0.0223,0.0238,0.0228,0.0237,0.0227,0.0208,0.0203,0.0204,0.0185,0.0201,0.021,0.0205,0.0165,0.0212,0.0214,0.0191,0.0153,0.0109,0.0101,0.0183,0.0182,0.0182,0.0144,0,0.024,0.0241,0.0239,0.0245,0.0253,0.0245,0.0247,0.0243,0.0229,0.0221,0.0206,0.0198,0.0183,0.0169,0.016,0.0177,0.0156,0.0172,0.0189,0.0189,0.0148,0.0096,0.0335,0.0318,0.0141,0.0141,0.014,0,0.0268,0.0261,0.0256,0.0259,0.0261,0.0253,0.025,0.0249,0.0236,0.0219,0.0192,0.0184,0.0159,0.0151,0.0134,0.0142,0.013,0.0136,0.0136,0.0116,0.0139,0.0322,0.0319,0.0135,0.0135,0.0136,0.0136,0,0.0293,0.0287,0.0275,0.0274,0.0269,0.025,0.0242,0.0232,0.0224,0.0194,0.0176,0.0162,0.013,0.0127,0.0096,0.0115,0.0083,0.0122,0.007,0.0067,0.0285,0.03,0.0101,0.0101,0.0101,0.0101,0.0101,0,0.0328,0.0328,0.0269,0.0264,0.0249,0.0243,0.0222,0.0212,0.0192,0.0169,0.0151,0.0127,0.0118,0.0095,0.0091,0.0047,0.0068,0.0046,0.005,0.0266,0.0279,0.0144,0.0149,0.01,0.01,0.01,0.01,0,0.0384,0.034,0.0324,0.0276,0.0254,0.0236,0.0194,0.0191,0.0156,0.0123,0.01,0.0085,0.0044,0.0036,0.0027,0.0017,0.0005,-0.0017,0.0213,0.0242,-0.0007,-0.0004,-0.0061,-0.0063,-0.0065,-0.0066,-0.0067,0,0.0417,0.0408,0.0321,0.0281,0.0246,0.0207,0.0188,0.0162,0.0145,0.009,0.0076,0.0025,-0.002,-0.0054,-0.0021,-0.0036,-0.006,0.0137,0.0208,-0.0036,-0.0026,-0.002,-0.0015,0.0483,0.0486,0.0489,0.0491,0,0.0491,0.0435,0.0406,0.0298,0.0243,0.022,0.017,0.016,0.0118,0.0071,0.0006,-0.0038,-0.0055,0.0051,0.0028,0.0062,0.0163,0.0185,-0.0089,0.0451,0.0465,0.0478,0.0468,0.0516,0.0514,0.0512,0.0511,0.051,0.0529,0.051,0.0419,0.0328,0.0258,0.0215,0.0199,0.0145,0.0101,0.0058,-0.0019,-0.0001,0.0079,0.0163,0.0132,0.0206,0.0199,0.0329,0.0327,0.0321,0.0355,0.0361,0.04,0.0397,0.0394,0.0392,0.039,0,0.0592,0.0527,0.0455,0.034,0.0274,0.021,0.0178,0.0156,0.0076,0.0082,-0.0008,0.0161,0.0264,0.0337,0.0509,0.046,0.0494,0.0464,0.0618,0.0603,0.0587,0.0635,0.0753,0.0751,0.0749,0.0747,0,0,0.0609,0.0574,0.0523,0.0379,0.0272,0.0198,0.0173,0.0142,0.0129,0.0154,0.0267,0.0243,0.0378,0.0517,0.0571,0.0685,0.0576,0.0665,0.0433,0.0603,0.058,0.0634,0.0707,0,0,0,0,0]}],[{"header":{"parameterUnit":"m.s-1","parameterCategory":2,"la1":30.2991,"la2":30.254,"lo1":-89.0895,"lo2":-89.0444,"dy":0.0017,"dx":0.0017,"nx":28,"ny":28,"refTime":"2024-09-02T09:00:00:Z","depth":"4","parameterNumber":2,"parameterNumberName":"U-component_of_CURRENTS"},"data":[0,0,0,0,0,0,0,0,0,0,0,0,0,0,0,0,0,0,0,0,0,0,0,0,0,0,0,0,0,0,0,0,0,0,0,0,0,0,0,0,0,0,0,0,0,0,0,0,0,0,0,0,0,0,0,0,0,0,-0.0389,-0.0388,0,-0.0357,-0.0357,-0.0356,-0.035,-0.035,-0.035,-0.0351,-0.0372,-0.0372,-0.0372,0,0,0,0,0,0,0,0,0,0,0,0,0,-0.0409,-0.0409,-0.0389,-0.0388,-0.0388,-0.0357,-0.0357,-0.0356,-0.035,-0.035,-0.035,-0.0351,-0.0372,-0.0372,-0.0372,0,0,0,0,0,0,0,0,0,0,0,0,0,-0.0391,-0.0409,-0.0389,-0.0381,-0.038,-0.0357,-0.0357,-0.0356,-0.035,-0.035,-0.0351,-0.0351,-0.0371,-0.0372,-0.0372,-0.0369,0,0,-0.0374,-0.0374,0,0,0,0,0,0,0,0,-0.0392,-0.0391,-0.0382,-0.0381,-0.038,-0.0358,-0.0372,-0.0363,-0.035,-0.0361,-0.0351,-0.0351,-0.0372,-0.0372,-0.0365,-0.037,-0.0371,-0.0374,-0.0374,-0.0375,-0.0375,0,0,0,0,0,0,0,-0.0394,-0.0392,-0.0376,-0.0382,-0.0381,-0.0367,-0.0365,-0.037,-0.0366,-0.036,-0.036,-0.0356,-0.0371,-0.0364,-0.0366,-0.0371,-0.0374,-0.0375,-0.0375,-0.0375,-0.0439,-0.0441,0,0,0,0,0,0,-0.0399,-0.0393,-0.0377,-0.0375,-0.0387,-0.0367,-0.0365,-0.0365,-0.0365,-0.0365,-0.0356,-0.0356,-0.0363,-0.0365,-0.0366,-0.0422,-0.0375,-0.0375,-0.0376,-0.0438,-0.044,-0.0441,0,0,0,0,0,0,-0.0399,-0.0398,-0.0379,-0.0383,-0.038,-0.0366,-0.0366,-0.0364,-0.0358,-0.0361,-0.0362,-0.0353,-0.0364,-0.0366,-0.0373,-0.042,-0.0375,-0.0376,-0.0436,-0.0439,-0.0441,-0.0495,0,0,0,0,0,0,-0.04,-0.0398,-0.0402,-0.0384,-0.038,-0.0364,-0.0366,-0.0363,-0.0355,-0.0355,-0.0359,-0.0361,-0.0364,-0.0372,-0.0373,-0.042,-0.0376,-0.0435,-0.0437,-0.044,-0.0492,-0.0499,-0.0505,0,0,0,0,0,-0.0401,-0.0403,-0.0403,-0.0401,-0.0385,-0.0364,-0.036,-0.0352,-0.0355,-0.0349,-0.0356,-0.0361,-0.0391,-0.0372,-0.0374,-0.0423,-0.0433,-0.0437,-0.044,-0.0489,-0.0497,-0.0505,0,0,0,0,0,0,-0.0411,-0.0401,-0.0401,-0.04,-0.0383,-0.0363,-0.0358,-0.0352,-0.035,-0.0355,-0.036,-0.0363,-0.0395,-0.0392,-0.0372,-0.045,-0.0421,-0.0424,-0.0457,-0.0466,-0.0472,-0.0431,-0.0377,0,0,0,0,0,-0.0416,-0.0419,-0.04,-0.04,-0.0391,-0.0375,-0.0367,-0.036,-0.0354,-0.0353,-0.0357,-0.0376,-0.0409,-0.042,-0.0435,-0.0462,-0.0426,-0.05,-0.0507,-0.0512,-0.0481,-0.0489,-0.0493,-0.0452,-0.0452,-0.0451,0,0,-0.042,-0.0416,-0.0417,-0.0403,-0.0391,-0.038,-0.0371,-0.0357,-0.0368,-0.0357,-0.0375,-0.0392,-0.0419,-0.0459,-0.0475,-0.0462,-0.0503,-0.0516,-0.0521,-0.0485,-0.0493,-0.0496,-0.05,-0.0454,-0.0453,-0.0453,0,0,-0.0419,-0.0424,-0.0419,-0.0407,-0.0388,-0.0384,-0.038,-0.0361,-0.0374,-0.0383,-0.0402,-0.0434,-0.046,-0.0497,-0.0521,-0.0569,-0.0536,-0.0591,-0.0594,-0.0605,-0.0607,-0.0609,-0.0551,-0.0547,-0.0598,-0.0598,-0.0598,0,-0.0423,-0.0416,-0.0413,-0.0399,-0.0397,-0.0387,-0.0379,-0.0391,-0.0382,-0.04,-0.0396,-0.0455,-0.0483,-0.055,-0.057,-0.0587,-0.0551,-0.0565,-0.0612,-0.0613,-0.0614,-0.0553,-0.0549,-0.0601,-0.06,-0.06,-0.06,0,-0.0412,-0.0406,-0.04,-0.0392,-0.0392,-0.0379,-0.0393,-0.0403,-0.042,-0.0432,-0.0484,-0.0511,-0.053,-0.0583,-0.0587,-0.0632,-0.0588,-0.0618,-0.0587,-0.0621,-0.0555,-0.0549,-0.0605,-0.0604,-0.0603,-0.0602,0,0,-0.0406,-0.0396,-0.0391,-0.0377,-0.0387,-0.0371,-0.0417,-0.044,-0.0448,-0.0482,-0.05,-0.0584,-0.0569,-0.0591,-0.062,-0.0646,-0.0633,-0.0624,-0.0623,-0.0554,-0.0591,-0.0555,-0.0544,-0.067,-0.0669,-0.0669,-0.0534,0,-0.0391,-0.0365,-0.0381,-0.0361,-0.0343,-0.0371,-0.04,-0.043,-0.0461,-0.0473,-0.0543,-0.0553,-0.0586,-0.0577,-0.0615,-0.0622,-0.0621,-0.0662,-0.0575,-0.057,-0.0528,-0.0539,-0.0669,-0.053,-0.0528,-0.0527,-0.0526,0,-0.0366,-0.035,-0.0333,-0.0325,-0.0321,-0.0315,-0.0344,-0.0361,-0.0414,-0.0437,-0.0473,-0.0495,-0.0528,-0.0548,-0.056,-0.0575,-0.0564,-0.058,-0.0577,-0.0511,-0.0524,-0.0493,-0.0515,-0.0516,-0.0516,-0.0517,-0.0518,0,-0.0334,-0.0313,-0.0299,-0.0294,-0.0293,-0.0295,-0.0291,-0.0339,-0.035,-0.0376,-0.0371,-0.0427,-0.0406,-0.0443,-0.0449,-0.0492,-0.0441,-0.0513,-0.0466,-0.0461,-0.0507,-0.0506,-0.0505,-0.0505,-0.0506,-0.0506,-0.0507,0,-0.0307,-0.0285,-0.0263,-0.0244,-0.0212,-0.0225,-0.0203,-0.0224,-0.0243,-0.0253,-0.0303,-0.0311,-0.0375,-0.0368,-0.0404,-0.038,-0.039,-0.0435,-0.0431,-0.0531,-0.0535,-0.05,-0.0502,-0.0501,-0.0502,-0.0503,-0.0504,0,-0.0276,-0.0269,-0.0232,-0.0208,-0.019,-0.0154,-0.0124,-0.0115,-0.0123,-0.0132,-0.0128,-0.018,-0.0176,-0.0217,-0.0245,-0.0282,-0.0297,-0.0283,-0.0306,-0.031,-0.0317,-0.0323,-0.0231,-0.0229,-0.0227,-0.0226,-0.0224,0,-0.0261,-0.024,-0.0192,-0.0162,-0.0142,-0.0085,-0.0062,-0.0054,-0.0054,-0.0073,-0.008,-0.0063,-0.0108,-0.0081,-0.0144,-0.0158,-0.0194,-0.0161,-0.0323,-0.0287,-0.0292,-0.0301,-0.0309,-0.0221,-0.0221,-0.022,-0.022,0,-0.0234,-0.0221,-0.0194,-0.0131,-0.0084,-0.004,0.0002,0.0014,-0.0,-0.0,-0.0031,-0.0056,-0.0037,-0.0079,-0.004,-0.0089,-0.0179,-0.0143,-0.0151,-0.0303,-0.0274,-0.0283,-0.0293,-0.0213,-0.0214,-0.0215,-0.0215,0,-0.0215,-0.0194,-0.0162,-0.0106,-0.0059,-0.0026,0.0006,0.0016,0.0029,-0.0003,-0.0007,-0.0028,-0.0034,-0.0037,-0.0035,-0.0035,-0.0097,-0.0144,-0.0153,-0.016,-0.0211,-0.0168,-0.0048,0,0,0,0,0,-0.0191,-0.0178,-0.014,-0.0085,-0.0049,-0.0026,0.0014,0.0032,0.0032,0.0013,-0.0001,-0.0007,-0.0025,-0.0029,-0.0027,-0.0028,-0.0093,-0.0027,-0.015,-0.0177,-0.0185,-0.0259,0,0,0,0,0,0,-0.0177,-0.0151,-0.0142,-0.0095,-0.0064,-0.0023,-0.0006,-0.0001,-0.0006,-0.0012,-0.0009,-0.0022,-0.0019,-0.0027,-0.0034,-0.0034,-0.0117,-0.0029,-0.003,-0.0173,-0.018,-0.0186,-0.0264,0,0,0,0,0]},{"header":{"parameterUnit":"m.s-1","parameterCategory":2,"la1":30.2991,"la2":30.254,"lo1":-89.0895,"lo2":-89.0444,"dy":0.0017,"dx":0.0017,"nx":28,"ny":28,"refTime":"2024-09-02T09:00:00:Z","depth":"4","parameterNumber":3,"parameterNumberName":"V-component_of_CURRENTS"},"data":[0,0,0,0,0,0,0,0,0,0,0,0,0,0,0,0,0,0,0,0,0,0,0,0,0,0,0,0,0,0,0,0,0,0,0,0,0,0,0,0,0,0,0,0,0,0,0,0,0,0,0,0,0,0,0,0,0,0,0.0436,0.0436,0,0.0423,0.0422,0.0422,0.0441,0.0442,0.0443,0.0443,0.0412,0.041,0.0409,0,0,0,0,0,0,0,0,0,0,0,0,0,0.042,0.042,0.0436,0.0436,0.0437,0.0423,0.0422,0.0422,0.0441,0.0442,0.0443,0.0444,0.0412,0.0411,0.0409,0,0,0,0,0,0,0,0,0,0,0,0,0,0.0417,0.042,0.0436,0.0446,0.0447,0.0423,0.0422,0.0422,0.044,0.0442,0.0443,0.0444,0.0413,0.0411,0.0408,0.0367,0,0,0.0401,0.04,0,0,0,0,0,0,0,0,0.0417,0.0417,0.0444,0.0445,0.0446,0.0437,0.0405,0.0403,0.044,0.0441,0.0443,0.0445,0.0419,0.0416,0.0408,0.0366,0.0364,0.0401,0.0399,0.0398,0.0397,0,0,0,0,0,0,0,0.0417,0.0418,0.0429,0.0444,0.0445,0.043,0.0432,0.0404,0.0421,0.0441,0.0442,0.0444,0.0419,0.041,0.0407,0.0364,0.0401,0.0398,0.0397,0.0396,0.0346,0.0346,0,0,0,0,0,0,0.0425,0.0418,0.0429,0.0429,0.0437,0.043,0.0431,0.0437,0.0421,0.0421,0.0443,0.0445,0.0414,0.041,0.0406,0.0444,0.0398,0.0396,0.0394,0.0346,0.0346,0.0346,0,0,0,0,0,0,0.0425,0.0426,0.043,0.0424,0.0424,0.043,0.0435,0.0436,0.0437,0.0424,0.0423,0.0445,0.0415,0.041,0.0379,0.044,0.0395,0.0392,0.0345,0.0346,0.0346,0.0463,0,0,0,0,0,0,0.0424,0.0426,0.043,0.0425,0.0425,0.0414,0.0434,0.0435,0.0437,0.0439,0.0425,0.0423,0.0415,0.0383,0.0377,0.0435,0.039,0.0345,0.0346,0.0346,0.0459,0.0467,0.0474,0,0,0,0,0,0.0424,0.0424,0.043,0.0432,0.0431,0.0414,0.0411,0.0418,0.0436,0.0426,0.0417,0.0424,0.0382,0.038,0.0373,0.0433,0.0345,0.0345,0.0346,0.0456,0.0466,0.0474,0,0,0,0,0,0,0.0415,0.0425,0.0433,0.0436,0.0426,0.0418,0.0415,0.0419,0.0404,0.0412,0.0404,0.0399,0.0403,0.0378,0.0376,0.0414,0.0373,0.0372,0.0459,0.0468,0.0476,0.0457,0.0388,0,0,0,0,0,0.0416,0.0423,0.042,0.0422,0.042,0.0418,0.0414,0.0416,0.0405,0.0402,0.0393,0.0388,0.0396,0.0399,0.038,0.0384,0.0358,0.042,0.0428,0.0435,0.0412,0.0394,0.0399,0.0347,0.0347,0.0347,0,0,0.0414,0.042,0.0424,0.0421,0.0418,0.0406,0.0418,0.0412,0.0413,0.0398,0.0392,0.04,0.0395,0.0413,0.0416,0.0406,0.0448,0.0435,0.0442,0.0414,0.0395,0.04,0.0405,0.0347,0.0347,0.0347,0,0,0.0405,0.0418,0.0418,0.0407,0.0403,0.0401,0.0401,0.0393,0.0404,0.0397,0.0405,0.0429,0.0423,0.0442,0.0454,0.0478,0.0479,0.0499,0.054,0.0526,0.053,0.0533,0.0568,0.0573,0.0517,0.0517,0.0517,0,0.0403,0.0407,0.041,0.0399,0.0405,0.04,0.04,0.0393,0.0377,0.0392,0.0406,0.0428,0.044,0.0477,0.0515,0.0502,0.0502,0.0521,0.0539,0.0541,0.0542,0.0576,0.058,0.0523,0.0522,0.0522,0.0521,0,0.0388,0.0391,0.0387,0.0384,0.0383,0.0378,0.038,0.0378,0.0407,0.0415,0.045,0.0464,0.0483,0.0524,0.0543,0.058,0.0584,0.0546,0.0524,0.0555,0.0589,0.0591,0.0531,0.0529,0.0527,0.0526,0,0,0.0399,0.0384,0.0386,0.0393,0.0384,0.0387,0.0389,0.0403,0.0407,0.0431,0.0452,0.0524,0.0542,0.0551,0.0584,0.0602,0.0668,0.0601,0.0598,0.0652,0.0677,0.0653,0.0653,0.0641,0.0641,0.064,0.072,0,0.0395,0.0385,0.0386,0.0389,0.039,0.0396,0.0397,0.0408,0.0424,0.0423,0.0477,0.0503,0.0548,0.059,0.0611,0.0628,0.0668,0.0651,0.0621,0.0621,0.0608,0.0652,0.0639,0.0722,0.0722,0.0722,0.0723,0,0.0396,0.0392,0.0399,0.0412,0.0417,0.0429,0.0454,0.0448,0.0443,0.0461,0.0489,0.0494,0.0552,0.0568,0.0623,0.0614,0.0658,0.0678,0.068,0.0603,0.0598,0.0664,0.0726,0.0726,0.0726,0.0726,0.0725,0,0.0428,0.0418,0.0437,0.0434,0.0429,0.0468,0.0487,0.0484,0.0485,0.0489,0.0498,0.0514,0.0559,0.0572,0.0647,0.0636,0.0688,0.0664,0.0687,0.0689,0.0636,0.0631,0.0691,0.0691,0.0691,0.0691,0.0691,0,0.044,0.0457,0.0461,0.047,0.0511,0.051,0.0552,0.0553,0.0536,0.0543,0.0535,0.0545,0.0562,0.0591,0.0631,0.0678,0.068,0.0694,0.0694,0.0692,0.0692,0.0642,0.0636,0.0694,0.0693,0.0693,0.0692,0,0.0476,0.0465,0.0485,0.0505,0.053,0.0569,0.0618,0.0609,0.0609,0.061,0.0622,0.0592,0.0654,0.0673,0.0714,0.0683,0.0708,0.0733,0.0774,0.0775,0.0729,0.0727,0.0739,0.0739,0.0739,0.0738,0.0738,0,0.0491,0.05,0.0532,0.0551,0.0579,0.0638,0.066,0.0666,0.0646,0.0651,0.0634,0.0687,0.0695,0.0717,0.0737,0.0785,0.0787,0.0765,0.0704,0.0728,0.0728,0.0727,0.0725,0.0737,0.0737,0.0737,0.0737,0,0.0519,0.0533,0.0548,0.0589,0.0632,0.0663,0.0704,0.0681,0.0671,0.0682,0.0651,0.0651,0.0715,0.0718,0.0772,0.0797,0.0732,0.076,0.0761,0.0703,0.0726,0.0725,0.0725,0.0736,0.0736,0.0736,0.0736,0,0.0549,0.0566,0.0585,0.0622,0.0658,0.0664,0.0688,0.0674,0.0661,0.0635,0.0645,0.0699,0.073,0.0732,0.0773,0.0795,0.078,0.0699,0.0702,0.0704,0.065,0.067,0.0665,0,0,0,0,0,0.0567,0.0586,0.0614,0.0642,0.0667,0.0694,0.0684,0.0677,0.0673,0.0643,0.0633,0.0695,0.0723,0.0722,0.0749,0.0777,0.0794,0.0795,0.0705,0.0728,0.0729,0.0666,0,0,0,0,0,0,0.058,0.0611,0.0615,0.0645,0.0664,0.0694,0.068,0.0672,0.0632,0.0631,0.0656,0.0662,0.0714,0.0761,0.0756,0.0762,0.0682,0.0829,0.0826,0.0727,0.0728,0.0729,0.0665,0,0,0,0,0]}]]